Regional Weather Roundup
Issued by NWS

Home | Current Version | Previous Version | Text Only | Print | Product List | Glossary On
Versions: 1 2 3 4 5 6 7 8 9 10 11 12 13 14 15 16 17 18 19 20 21 22 23 24 25 26 27 28 29 30 31 32 33 34 35 36 37 38 39 40 41 42 43 44 45 46 47 48 49 50
772
ASUS44 KLIX 251012
RWRLA
LOUISIANA WEATHER ROUNDUP
NATIONAL WEATHER SERVICE NEW ORLEANS LA
500 AM CDT WED MAY 25 2016

NOTE: "FAIR" INDICATES FEW OR NO CLOUDS BELOW 12,000 FEET WITH NO
      SIGNIFICANT WEATHER AND/OR OBSTRUCTIONS TO VISIBILITY.
      SKY/WX - SKY CONDITION AND SIGNIFICANT WEATHER.
      TMP - AIR TEMPERATURE.    DP   - DEWPOINT TEMPERATURE.
      RH  - RELATIVE HUMIDITY.  PRES - PRESSURE.
      HX  - HEAT INDEX.         WCI  - WIND CHILL INDEX.

*  THESE STATIONS ARE NOT NWS OR FAA STATIONS AND ARE NOT UNDER
   NWS QUALITY CONTROL.

LAZ040-048-061>063-065-066-069-251100-
SOUTHEAST LOUISIANA

CITY           SKY/WX    TMP DP  RH WIND       PRES   REMARKS
N.O. AUDUBON     N/A     75  73  93 MISG        N/A
N.O. INTL ARPT PTCLDY    76  72  87 SE5       30.09R
N.O. LAKEFRONT PTCLDY    76  72  87 SE7       30.09R
N.O. DOWNTOWN* FAIR      76  73  91 VRB5      30.10R
RESERVE*       FAIR      74  73  94 E5        30.09R
SLIDELL        PTCLDY    67  66  97 CALM      30.09R
BATON ROUGE    PTCLDY    73  71  93 SE5       30.08S
BOOTHVILLE     CLEAR     73  71  93 SE5       30.09S
BELLE CHASSE   PTCLDY    75  73  93 SE3       30.09R
BOGALUSA*      FAIR      65  62  90 CALM      30.10S
GALLIANO*      SUNNY     76  73  91 SE5       30.07F
NEW ROADS*     PTSUNNY   73  72  96 SE6       30.08S FOG
GONZALES*      CLOUDY    72  72 100 CALM      30.08R
HAMMOND*       PTCLDY    70  66  88 CALM      30.09R
HOUMA*           N/A     75  74  96 SE5       30.07R
PORT FOURCHON* MOSUNNY   79  73  83 SE13      30.08S

$$

LAZ041-044-053-054-251100-
SOUTHWEST LOUISIANA

CITY           SKY/WX    TMP DP  RH WIND       PRES   REMARKS
LAKE CHARLES   MOCLDY    78  75  90 S8        30.02R
LAFAYETTE      MOCLDY    75  73  93 CALM      30.06R
PATTERSON      PTCLDY    74  73  97 CALM      30.07R
SALT POINT       N/A     77  75  93 SE6       30.04R
NEW IBERIA     PTCLDY    75  73  93 SE6       30.06R
CHENAULT AIRPK CLOUDY    77  75  94 SE6       30.03R

$$

LAZ027-028-251100-
CENTRAL LOUISIANA

CITY           SKY/WX    TMP DP  RH WIND       PRES   REMARKS
FORT POLK      CLOUDY    77  74  91 S12       30.04R
ALEXANDRIA INT MOCLDY    74  73  97 SE6       30.03S
ALEXANDRIA     MOCLDY    75  72  90 SE6       30.06R

$$

LAZ001-002-251100-
NORTHWEST LOUISIANA

CITY           SKY/WX    TMP DP  RH WIND       PRES   REMARKS
SHREVEPORT     CLOUDY    75  73  93 SE7       30.01R
BARKSDALE AFB  MOCLDY    74  74 100 SE7       30.01R
DTN SHREVEPORT CLOUDY    76  72  87 S9        30.01S

$$

LAZ014-016-251100-
NORTHEAST LOUISIANA

CITY           SKY/WX    TMP DP  RH WIND       PRES   REMARKS
MONROE         CLOUDY    74  72  93 S8        30.05R
TALLULAH         N/A     73  69  87 S8        30.07R

$$





USA.gov is the U.S. government's official web portal to all federal, state and local government web resources and services.